(37408) = 1994 LP5 = 2001 XY114

Discovered at Socorro on 2001-12-13 by LINEAR.

Orbit

Orbit type: Main Belt

Note: WebGL enabled browser required.

epoch2024-03-31.0
epoch JD2460400.5
perihelion date2021-05-19.26262
perihelion JD2459353.76263
argument of perihelion (°)296.98213
ascending node (°)68.44412
inclination (°)12.16423
eccentricity0.1623134
perihelion distance (AU)2.4887531
Tisserand w.r.t. Jupiter3.2
ΔV w.r.t. Earth (km/sec)10.6
semimajor axis (AU)2.9709835
mean anomaly (°)201.46121
mean daily motion (°/day)0.19246590
aphelion distance (AU)3.453
period (years)5.12
P-vector [x]0.97690976
P-vector [y]0.16819944
P-vector [z]-0.13174315
Q-vector [x]-0.08508986
Q-vector [y]0.87190766
Q-vector [z]0.48222064
absolute magnitude14.36
phase slope0.15
uncertainty0
referenceE2024-GI3
observations used1428
oppositions23
arc length (days)10906
first opposition used1994
last opposition used2024
residual rms (arc-secs)0.66
perturbers coarse indicatorM-v
perturbers precise indicator003Ek
first observation date used1994-06-03.0
last observation date used2024-04-12.0
computer nameMPCLINUX
JD of orbit computation2456937.318164
perihelion JD uncertainty (days)9.4222E-05
argument of perihelion uncertainty (°)2.2285E-05
ascending node uncertainty (°)1.7051E-05
inclination uncertainty (°)4.7632E-06
eccentricity uncertainty 3.5202E-08
perihelion distance uncertainty (AU)1.0342E-07
Minimum Orbit Intersection Distances (in AU)
for orbit epoch: 2460400.5, reference: E2024-GI3
Mercury2.12883
Venus1.77153
Earth1.51674
Mars1.1106
Jupiter2.10088
Saturn6.02061
Uranus15.0838
Neptune27.1344

Observations

1411 total observations over interval: 1994 06 03.10312 – 2023 04 25.166725
These data are available for download (format description).

Date (UT) J2000 RA J2000 Dec Magn Location Ref
1994 06 03.10312 16 32 53.88 -22 33 12.8 19.0   809 – European Southern Observatory, La Silla MPC 23949
1994 06 03.12222 16 32 52.73 -22 33 14.2   809 – European Southern Observatory, La Silla MPC 23949
1994 06 03.14132 16 32 51.65 -22 33 14.6   809 – European Southern Observatory, La Silla MPC 23949
1994 06 04.17361 16 31 53.21 -22 34 32.9   809 – European Southern Observatory, La Silla MPC 23949
1994 06 04.18750 16 31 52.22 -22 34 34.7   809 – European Southern Observatory, La Silla MPC 23949
1994 06 04.20139 16 31 51.46 -22 34 35.5   809 – European Southern Observatory, La Silla MPC 23949
1998 03 24.15947 12 16 04.16 +15 45 37.1 19.0   704 – Lincoln Laboratory ETS, New Mexico MPS 46891
1998 03 24.17971 12 16 03.07 +15 45 41.8 19.6   704 – Lincoln Laboratory ETS, New Mexico MPS 46891
1998 03 24.20041 12 16 02.14 +15 45 44.3 19.4   704 – Lincoln Laboratory ETS, New Mexico MPS 46891
1998 03 24.22080 12 16 00.98 +15 45 51.2 19.4   704 – Lincoln Laboratory ETS, New Mexico MPS 46891
1999 05 13.37436 16 07 46.80 -18 06 43.5 19.1   704 – Lincoln Laboratory ETS, New Mexico MPS 46891
1999 05 13.38950 16 07 45.96 -18 06 44.2 19.4   704 – Lincoln Laboratory ETS, New Mexico MPS 46891
1999 05 13.40460 16 07 45.32 -18 06 44.2 19.5   704 – Lincoln Laboratory ETS, New Mexico MPS 46891
1999 05 13.43475 16 07 43.33 -18 06 45.5 20.1   704 – Lincoln Laboratory ETS, New Mexico MPS 46891
1999 06 07.24317 15 45 37.98 -18 17 30.5 19.1 V 691 – Steward Observatory, Kitt Peak-Spacewatch MPS 81115
1999 06 07.26502 15 45 36.85 -18 17 31.2 19.1 V 691 – Steward Observatory, Kitt Peak-Spacewatch MPS 81115
1999 06 07.28662 15 45 35.73 -18 17 31.9 19.7 V 691 – Steward Observatory, Kitt Peak-Spacewatch MPS 81115
1999 06 12.23888 15 41 35.89 -18 20 46.4 18.9 V 691 – Steward Observatory, Kitt Peak-Spacewatch MPS 46891
1999 06 12.26086 15 41 34.84 -18 20 46.4 19.2 V 691 – Steward Observatory, Kitt Peak-Spacewatch MPS 46891
1999 06 12.28279 15 41 33.80 -18 20 47.4 19.3 V 691 – Steward Observatory, Kitt Peak-Spacewatch MPS 46891
1999 06 22.18830 15 34 42.40 -18 29 53.3 19.9 V 691 – Steward Observatory, Kitt Peak-Spacewatch MPS 81115
1999 06 22.21038 15 34 41.58 -18 29 54.6 19.6 V 691 – Steward Observatory, Kitt Peak-Spacewatch MPS 81115
1999 06 22.23354 15 34 40.71 -18 29 56.5 19.5 V 691 – Steward Observatory, Kitt Peak-Spacewatch MPS 81115
2000 08 07.39081 23 33 52.42 -23 32 36.6 19.1   608 – Haleakala-AMOS MPS 46891
2000 08 07.40150 23 33 52.17 -23 32 41.6 19.1   608 – Haleakala-AMOS MPS 46891
2000 08 07.41276 23 33 51.92 -23 32 46.8 18.6   608 – Haleakala-AMOS MPS 46891
2000 08 26.38991 23 23 17.76 -25 45 16.0 17.8   704 – Lincoln Laboratory ETS, New Mexico MPS 46891
2000 08 26.40717 23 23 16.94 -25 45 22.5 18.3   704 – Lincoln Laboratory ETS, New Mexico MPS 46891
2000 08 26.42101 23 23 16.24 -25 45 27.5 17.7   704 – Lincoln Laboratory ETS, New Mexico MPS 46891
2000 08 26.43825 23 23 15.40 -25 45 34.0 17.8   704 – Lincoln Laboratory ETS, New Mexico MPS 46891
2000 08 26.45164 23 23 14.78 -25 45 39.4 17.9   704 – Lincoln Laboratory ETS, New Mexico MPS 46891
2000 09 20.23383 23 02 59.21 -27 13 32.6 18.1   704 – Lincoln Laboratory ETS, New Mexico MPS 46891
2000 09 20.24894 23 02 58.51 -27 13 33.7 18.2   704 – Lincoln Laboratory ETS, New Mexico MPS 46891
2000 09 20.26359 23 02 57.86 -27 13 33.8 18.3   704 – Lincoln Laboratory ETS, New Mexico MPS 46891
2000 09 20.27821 23 02 57.12 -27 13 33.9 18.4   704 – Lincoln Laboratory ETS, New Mexico MPS 46891
2000 09 20.29280 23 02 56.37 -27 13 34.0 18.0   704 – Lincoln Laboratory ETS, New Mexico MPS 46891
2000 09 28.25020 22 57 16.86 -27 08 14.5 17.5 R 699 – Lowell Observatory-LONEOS MPS 46891
2000 09 28.25952 22 57 16.53 -27 08 14.5   699 – Lowell Observatory-LONEOS MPS 46891
2000 09 28.26883 22 57 16.20 -27 08 11.9   699 – Lowell Observatory-LONEOS MPS 46891
2000 09 28.27818 22 57 15.79 -27 08 11.1   699 – Lowell Observatory-LONEOS MPS 46891
2000 10 18.18562 22 49 17.04 -25 44 29.7 18.5 R 699 – Lowell Observatory-LONEOS MPS 46891
2000 10 18.19806 22 49 16.92 -25 44 25.2   699 – Lowell Observatory-LONEOS MPS 46891
2000 10 18.21053 22 49 16.85 -25 44 20.2   699 – Lowell Observatory-LONEOS MPS 46891
2000 10 18.22298 22 49 16.67 -25 44 15.4   699 – Lowell Observatory-LONEOS MPS 46891
2001 10 14.43992 07 01 17.26 +26 06 11.5 19.5   704 – Lincoln Laboratory ETS, New Mexico MPS 45270
2001 10 14.45592 07 01 17.87 +26 06 14.2 19.2   704 – Lincoln Laboratory ETS, New Mexico MPS 45270
2001 10 14.47171 07 01 18.55 +26 06 17.0 19.1   704 – Lincoln Laboratory ETS, New Mexico MPS 45270
2001 11 21.37808 07 10 03.91 +28 51 36.4 18.5   704 – Lincoln Laboratory ETS, New Mexico MPS 54170
2001 11 21.39419 07 10 03.51 +28 51 41.9 19.2   704 – Lincoln Laboratory ETS, New Mexico MPS 54170
2001 11 21.40954 07 10 03.26 +28 51 47.0 19.1   704 – Lincoln Laboratory ETS, New Mexico MPS 54170
2001 11 21.42411 07 10 03.03 +28 51 52.2 18.8   704 – Lincoln Laboratory ETS, New Mexico MPS 54170
2001 11 24.37862 07 09 01.40 +29 08 37.1 18.9   704 – Lincoln Laboratory ETS, New Mexico MPS 49746
2001 11 24.39308 07 09 01.07 +29 08 42.6 18.6   704 – Lincoln Laboratory ETS, New Mexico MPS 49746
2001 11 24.40756 07 09 00.73 +29 08 47.7 18.7   704 – Lincoln Laboratory ETS, New Mexico MPS 49746
2001 11 24.42203 07 09 00.37 +29 08 52.7 18.4   704 – Lincoln Laboratory ETS, New Mexico MPS 49746
2001 12 09.31575 07 00 06.91 +30 35 56.3 18.3   704 – Lincoln Laboratory ETS, New Mexico MPS 45270
2001 12 09.33065 07 00 06.18 +30 36 01.6 18.8   704 – Lincoln Laboratory ETS, New Mexico MPS 45270
2001 12 09.34556 07 00 05.45 +30 36 06.6 18.8   704 – Lincoln Laboratory ETS, New Mexico MPS 45270
2001 12 09.36047 07 00 04.71 +30 36 12.1 18.7   704 – Lincoln Laboratory ETS, New Mexico MPS 45270
2001 12 09.37544 07 00 04.03 +30 36 18.1 19.2   704 – Lincoln Laboratory ETS, New Mexico MPS 45270
2001 12 13.28015 06 56 49.31 +30 58 36.2 18.3   704 – Lincoln Laboratory ETS, New Mexico MPS 45270
2001 12 13.29519 06 56 48.48 +30 58 41.7 18.9   704 – Lincoln Laboratory ETS, New Mexico MPS 45270
2001 12 13.31037 06 56 47.66 +30 58 47.0 18.9   704 – Lincoln Laboratory ETS, New Mexico MPS 45270
2001 12 13.34052 06 56 46.04 +30 58 56.9 19.2   704 – Lincoln Laboratory ETS, New Mexico MPS 45270
2001 12 17.31198 06 53 09.31 +31 20 47.1 18.4   704 – Lincoln Laboratory ETS, New Mexico MPS 45270
2001 12 17.32731 06 53 08.46 +31 20 52.6 18.4   704 – Lincoln Laboratory ETS, New Mexico MPS 45270
2001 12 17.34392 06 53 07.39 +31 20 58.0 19.4   704 – Lincoln Laboratory ETS, New Mexico MPS 45270
2001 12 17.35931 06 53 06.60 +31 21 02.6 18.9   704 – Lincoln Laboratory ETS, New Mexico MPS 45270
2001 12 17.37477 06 53 05.69 +31 21 07.4 18.7   704 – Lincoln Laboratory ETS, New Mexico MPS 45270
2001 12 19.29725 06 51 15.29 +31 31 16.8 18.1   644 – Palomar Mountain/NEAT MPS 46891
2001 12 19.32292 06 51 13.76 +31 31 24.7 18.3   644 – Palomar Mountain/NEAT MPS 46891
2001 12 19.36696 06 51 10.99 +31 31 38.5 17.3   644 – Palomar Mountain/NEAT MPS 46891
2001 12 22.29190 06 48 17.40 +31 46 28.6 18.7   704 – Lincoln Laboratory ETS, New Mexico MPS 46891
2001 12 22.30700 06 48 16.48 +31 46 32.9 18.9   704 – Lincoln Laboratory ETS, New Mexico MPS 46891
2001 12 22.32211 06 48 15.53 +31 46 38.0 18.9   704 – Lincoln Laboratory ETS, New Mexico MPS 46891
2001 12 22.33722 06 48 14.59 +31 46 42.6 18.8   704 – Lincoln Laboratory ETS, New Mexico MPS 46891
2001 12 22.35234 06 48 13.63 +31 46 47.8 18.9   704 – Lincoln Laboratory ETS, New Mexico MPS 46891
2002 01 15.25487 06 24 09.34 +33 10 32.2 18.9   704 – Lincoln Laboratory ETS, New Mexico MPS 54170
2002 01 15.27068 06 24 08.44 +33 10 33.9 19.0   704 – Lincoln Laboratory ETS, New Mexico MPS 54170
2002 01 15.28742 06 24 07.44 +33 10 35.4 19.1   704 – Lincoln Laboratory ETS, New Mexico MPS 54170
2002 01 15.30307 06 24 06.57 +33 10 37.6 19.2   704 – Lincoln Laboratory ETS, New Mexico MPS 54170
2002 01 15.31944 06 24 05.71 +33 10 39.6 18.8   704 – Lincoln Laboratory ETS, New Mexico MPS 54170
2002 01 19.23927 06 20 45.14 +33 17 24.6 18.8   704 – Lincoln Laboratory ETS, New Mexico MPS 54170
2002 01 19.25525 06 20 44.32 +33 17 26.3 18.9   704 – Lincoln Laboratory ETS, New Mexico MPS 54170
